Time,TemperatureF,DewpointF,PressureIn,WindDirection,WindDirectionDegrees,WindSpeedMPH,WindSpeedGustMPH,Humidity,HourlyPrecipIn,Conditions,Clouds,dailyrainin,SoftwareType,DateUTC
2013-04-15 00:02:00,39.0,27.0,-100.00,South,169,8.0,17.0,62,-99.99,,,-99.99,,2013-04-15 07:02:00,
2013-04-15 00:41:00,39.0,28.0,-100.00,SSE,158,8.0,18.0,64,-99.99,,,-99.99,,2013-04-15 07:41:00,
2013-04-15 00:52:00,40.0,28.0,-100.00,SSE,165,6.0,19.0,63,-99.99,,,-99.99,,2013-04-15 07:52:00,
2013-04-15 01:02:00,40.0,28.0,-100.00,SSE,165,6.0,19.0,63,-99.99,,,-99.99,,2013-04-15 08:02:00,
2013-04-15 01:12:00,40.0,28.0,-100.00,SSE,165,6.0,19.0,63,-99.99,,,-99.99,,2013-04-15 08:12:00,
2013-04-15 01:22:00,40.0,28.0,-100.00,South,181,10.0,22.0,62,-99.99,,,-99.99,,2013-04-15 08:22:00,
2013-04-15 01:33:00,40.0,28.0,-100.00,South,181,10.0,22.0,62,-99.99,,,-99.99,,2013-04-15 08:33:00,
2013-04-15 01:42:00,40.0,28.0,-100.00,South,181,10.0,22.0,62,-99.99,,,-99.99,,2013-04-15 08:42:00,
2013-04-15 01:52:00,40.0,27.0,-100.00,South,182,7.0,17.0,59,-99.99,,,-99.99,,2013-04-15 08:52:00,
2013-04-15 02:02:00,40.0,27.0,-100.00,South,182,7.0,17.0,59,-99.99,,,-99.99,,2013-04-15 09:02:00,
2013-04-15 02:12:00,40.0,27.0,-100.00,South,182,7.0,17.0,59,-99.99,,,-99.99,,2013-04-15 09:12:00,
2013-04-15 02:22:00,39.0,27.0,-100.00,South,184,8.0,22.0,61,-99.99,,,-99.99,,2013-04-15 09:22:00,
2013-04-15 02:32:00,39.0,27.0,-100.00,South,184,8.0,22.0,61,-99.99,,,-99.99,,2013-04-15 09:32:00,
2013-04-15 02:42:00,39.0,27.0,-100.00,South,184,8.0,22.0,61,-99.99,,,-99.99,,2013-04-15 09:42:00,
2013-04-15 02:50:00,38.0,25.0,-100.00,South,181,8.0,19.0,59,-99.99,,,-99.99,,2013-04-15 09:50:00,
2013-04-15 02:52:00,39.0,27.0,-100.00,South,184,9.0,19.0,61,-99.99,,,-99.99,,2013-04-15 09:52:00,
2013-04-15 03:02:00,39.0,27.0,-100.00,South,184,9.0,19.0,61,-99.99,,,-99.99,,2013-04-15 10:02:00,
2013-04-15 03:13:00,39.0,27.0,-100.00,South,184,9.0,19.0,61,-99.99,,,-99.99,,2013-04-15 10:13:00,
2013-04-15 03:23:00,38.0,25.0,-100.00,South,181,8.0,19.0,59,-99.99,,,-99.99,,2013-04-15 10:23:00,
2013-04-15 03:33:00,38.0,25.0,-100.00,South,181,8.0,19.0,59,-99.99,,,-99.99,,2013-04-15 10:33:00,
2013-04-15 03:42:00,38.0,25.0,-100.00,South,181,8.0,19.0,59,-99.99,,,-99.99,,2013-04-15 10:42:00,
2013-04-15 04:22:00,37.0,26.0,-100.00,SSW,195,7.0,18.0,63,-99.99,,,-99.99,,2013-04-15 11:22:00,
2013-04-15 04:32:00,37.0,26.0,-100.00,SSW,195,7.0,18.0,63,-99.99,,,-99.99,,2013-04-15 11:32:00,
2013-04-15 04:42:00,37.0,26.0,-100.00,SSW,195,7.0,18.0,63,-99.99,,,-99.99,,2013-04-15 11:42:00,
2013-04-15 04:52:00,36.0,25.0,-100.00,South,171,7.0,17.0,65,-99.99,,,-99.99,,2013-04-15 11:52:00,
2013-04-15 05:03:00,36.0,25.0,-100.00,South,171,7.0,17.0,65,-99.99,,,-99.99,,2013-04-15 12:03:00,
2013-04-15 05:13:00,36.0,25.0,-100.00,South,171,7.0,17.0,65,-99.99,,,-99.99,,2013-04-15 12:13:00,
2013-04-15 05:22:00,36.0,23.0,-100.00,SSW,193,7.0,15.0,60,-99.99,,,-99.99,,2013-04-15 12:22:00,
2013-04-15 05:33:00,35.0,23.0,-100.00,South,179,7.0,21.0,60,-99.99,,,-99.99,,2013-04-15 12:33:00,
2013-04-15 05:43:00,35.0,23.0,-100.00,South,179,7.0,21.0,60,-99.99,,,-99.99,,2013-04-15 12:43:00,
2013-04-15 05:52:00,35.0,23.0,-100.00,South,179,7.0,21.0,60,-99.99,,,-99.99,,2013-04-15 12:52:00,
2013-04-15 06:03:00,35.0,22.0,-100.00,South,181,8.0,16.0,59,-99.99,,,-99.99,,2013-04-15 13:03:00,
2013-04-15 06:12:00,35.0,23.0,-100.00,South,176,7.0,16.0,60,-99.99,,,-99.99,,2013-04-15 13:12:00,
2013-04-15 06:23:00,35.0,23.0,-100.00,South,176,7.0,16.0,60,-99.99,,,-99.99,,2013-04-15 13:23:00,
2013-04-15 06:33:00,35.0,23.0,-100.00,South,176,7.0,16.0,60,-99.99,,,-99.99,,2013-04-15 13:33:00,
2013-04-15 06:42:00,35.0,23.0,-100.00,South,176,7.0,16.0,60,-99.99,,,-99.99,,2013-04-15 13:42:00,
2013-04-15 07:12:00,34.0,22.0,-100.00,South,175,5.0,13.0,62,-99.99,,,-99.99,,2013-04-15 14:12:00,
2013-04-15 07:22:00,34.0,22.0,-100.00,South,175,5.0,13.0,62,-99.99,,,-99.99,,2013-04-15 14:22:00,
2013-04-15 07:32:00,34.0,22.0,-100.00,South,175,5.0,13.0,62,-99.99,,,-99.99,,2013-04-15 14:32:00,
2013-04-15 07:43:00,33.0,22.0,-100.00,South,188,5.0,10.0,64,-99.99,,,-99.99,,2013-04-15 14:43:00,
2013-04-15 07:54:00,33.0,22.0,-100.00,South,188,5.0,10.0,64,-99.99,,,-99.99,,2013-04-15 14:54:00,
2013-04-15 08:03:00,33.0,22.0,-100.00,South,188,5.0,10.0,64,-99.99,,,-99.99,,2013-04-15 15:03:00,
2013-04-15 08:12:00,33.0,22.0,-100.00,South,188,5.0,10.0,64,-99.99,,,-99.99,,2013-04-15 15:12:00,
2013-04-15 08:34:00,35.0,23.0,-100.00,South,179,5.0,12.0,60,-99.99,,,-99.99,,2013-04-15 15:34:00,
2013-04-15 08:43:00,35.0,23.0,-100.00,South,179,5.0,12.0,60,-99.99,,,-99.99,,2013-04-15 15:43:00,
2013-04-15 08:53:00,35.0,23.0,-100.00,South,179,5.0,12.0,60,-99.99,,,-99.99,,2013-04-15 15:53:00,
2013-04-15 09:04:00,35.0,23.0,-100.00,SSE,165,7.0,16.0,60,-99.99,,,-99.99,,2013-04-15 16:04:00,
2013-04-15 09:13:00,35.0,23.0,-100.00,SSE,165,7.0,16.0,60,-99.99,,,-99.99,,2013-04-15 16:13:00,
2013-04-15 09:23:00,35.0,23.0,-100.00,SSE,165,7.0,16.0,60,-99.99,,,-99.99,,2013-04-15 16:23:00,
2013-04-15 09:33:00,34.0,24.0,-100.00,South,171,7.0,19.0,66,-99.99,,,-99.99,,2013-04-15 16:33:00,
2013-04-15 09:43:00,34.0,24.0,-100.00,South,171,7.0,19.0,66,-99.99,,,-99.99,,2013-04-15 16:43:00,
2013-04-15 09:53:00,34.0,24.0,-100.00,South,171,7.0,19.0,66,-99.99,,,-99.99,,2013-04-15 16:53:00,
2013-04-15 10:33:00,38.0,18.0,-100.00,South,179,9.0,21.0,44,-99.99,,,-99.99,,2013-04-15 17:33:00,
2013-04-15 10:43:00,38.0,18.0,-100.00,South,179,9.0,21.0,44,-99.99,,,-99.99,,2013-04-15 17:43:00,
2013-04-15 10:52:00,38.0,18.0,-100.00,South,179,9.0,21.0,44,-99.99,,,-99.99,,2013-04-15 17:52:00,
2013-04-15 11:32:00,39.0,19.0,-100.00,SSW,200,11.0,23.0,44,-99.99,,,-99.99,,2013-04-15 18:32:00,
2013-04-15 11:42:00,39.0,19.0,-100.00,SSW,200,11.0,23.0,44,-99.99,,,-99.99,,2013-04-15 18:42:00,
2013-04-15 11:52:00,39.0,19.0,-100.00,SSW,200,11.0,23.0,44,-99.99,,,-99.99,,2013-04-15 18:52:00,
2013-04-15 12:02:00,39.0,16.0,-100.00,SSW,212,13.0,26.0,38,-99.99,,,-99.99,,2013-04-15 19:02:00,
2013-04-15 14:02:00,37.0,25.0,-100.00,South,186,9.0,18.0,62,-99.99,,,-99.99,,2013-04-15 21:02:00,
2013-04-15 14:12:00,37.0,25.0,-100.00,South,186,9.0,18.0,62,-99.99,,,-99.99,,2013-04-15 21:12:00,
2013-04-15 14:22:00,37.0,25.0,-100.00,South,186,9.0,18.0,62,-99.99,,,-99.99,,2013-04-15 21:22:00,
2013-04-15 14:32:00,40.0,20.0,-100.00,SSW,196,11.0,30.0,45,-99.99,,,-99.99,,2013-04-15 21:32:00,
2013-04-15 14:43:00,40.0,20.0,-100.00,SSW,196,11.0,30.0,45,-99.99,,,-99.99,,2013-04-15 21:43:00,
2013-04-15 14:53:00,40.0,20.0,-100.00,SSW,196,11.0,30.0,45,-99.99,,,-99.99,,2013-04-15 21:53:00,
2013-04-15 15:02:00,39.0,18.0,-100.00,SSW,196,12.0,32.0,42,-99.99,,,-99.99,,2013-04-15 22:02:00,
2013-04-15 15:13:00,39.0,18.0,-100.00,SSW,196,12.0,32.0,42,-99.99,,,-99.99,,2013-04-15 22:13:00,
2013-04-15 15:23:00,38.0,18.0,-100.00,South,191,12.0,29.0,44,-99.99,,,-99.99,,2013-04-15 22:23:00,
2013-04-15 15:32:00,38.0,18.0,-100.00,SSW,193,11.0,24.0,44,-99.99,,,-99.99,,2013-04-15 22:32:00,
2013-04-15 15:42:00,38.0,18.0,-100.00,SSW,193,11.0,24.0,44,-99.99,,,-99.99,,2013-04-15 22:42:00,
2013-04-15 15:52:00,38.0,18.0,-100.00,SSW,193,11.0,24.0,44,-99.99,,,-99.99,,2013-04-15 22:52:00,
2013-04-15 16:02:00,33.0,27.0,-100.00,SSW,212,11.0,22.0,79,-99.99,,,-99.99,,2013-04-15 23:02:00,
2013-04-15 16:12:00,33.0,27.0,-100.00,SSW,212,11.0,22.0,79,-99.99,,,-99.99,,2013-04-15 23:12:00,
2013-04-15 16:22:00,33.0,27.0,-100.00,SSW,212,11.0,22.0,79,-99.99,,,-99.99,,2013-04-15 23:22:00,
2013-04-15 16:30:00,29.0,26.0,-100.00,WSW,244,11.0,25.0,88,-99.99,,,-99.99,,2013-04-15 23:30:00,
2013-04-15 16:32:00,30.0,29.0,-100.00,WSW,241,11.0,19.0,96,-99.99,,,-99.99,,2013-04-15 23:32:00,
2013-04-15 16:42:00,30.0,29.0,-100.00,WSW,241,11.0,19.0,96,-99.99,,,-99.99,,2013-04-15 23:42:00,
2013-04-15 16:52:00,29.0,27.0,-100.00,SW,236,11.0,19.0,94,-99.99,,,-99.99,,2013-04-15 23:52:00,
2013-04-15 17:02:00,29.0,26.0,-100.00,WSW,244,11.0,25.0,88,-99.99,,,-99.99,,2013-04-16 00:02:00,
2013-04-15 17:12:00,29.0,26.0,-100.00,WSW,244,11.0,25.0,88,-99.99,,,-99.99,,2013-04-16 00:12:00,
2013-04-15 17:22:00,29.0,26.0,-100.00,WSW,244,11.0,25.0,88,-99.99,,,-99.99,,2013-04-16 00:22:00,
2013-04-15 18:02:00,32.0,21.0,-100.00,WSW,251,11.0,22.0,63,-99.99,,,-99.99,,2013-04-16 01:02:00,
2013-04-15 18:12:00,32.0,21.0,-100.00,WSW,251,11.0,22.0,63,-99.99,,,-99.99,,2013-04-16 01:12:00,
2013-04-15 18:22:00,32.0,21.0,-100.00,WSW,251,11.0,22.0,63,-99.99,,,-99.99,,2013-04-16 01:22:00,
2013-04-15 18:32:00,31.0,21.0,-100.00,WSW,250,10.0,17.0,66,-99.99,,,-99.99,,2013-04-16 01:32:00,
2013-04-15 18:42:00,31.0,21.0,-100.00,WSW,250,10.0,17.0,66,-99.99,,,-99.99,,2013-04-16 01:42:00,
2013-04-15 18:52:00,31.0,21.0,-100.00,WSW,250,10.0,17.0,66,-99.99,,,-99.99,,2013-04-16 01:52:00,
2013-04-15 19:02:00,30.0,22.0,-100.00,SSW,208,5.0,13.0,73,-99.99,,,-99.99,,2013-04-16 02:02:00,
2013-04-15 19:12:00,30.0,22.0,-100.00,SSW,208,5.0,13.0,73,-99.99,,,-99.99,,2013-04-16 02:12:00,
2013-04-15 19:22:00,30.0,22.0,-100.00,SSW,208,5.0,13.0,73,-99.99,,,-99.99,,2013-04-16 02:22:00,
2013-04-15 19:30:00,30.0,22.0,-100.00,SW,227,5.0,10.0,72,-99.99,,,-99.99,,2013-04-16 02:30:00,
2013-04-15 19:32:00,30.0,21.0,-100.00,SSW,209,5.0,13.0,70,-99.99,,,-99.99,,2013-04-16 02:32:00,
2013-04-15 19:42:00,30.0,21.0,-100.00,SSW,209,5.0,13.0,70,-99.99,,,-99.99,,2013-04-16 02:42:00,
2013-04-15 19:52:00,30.0,21.0,-100.00,SSW,209,5.0,13.0,70,-99.99,,,-99.99,,2013-04-16 02:52:00,
2013-04-15 20:02:00,30.0,22.0,-100.00,SW,227,5.0,10.0,72,-99.99,,,-99.99,,2013-04-16 03:02:00,
2013-04-15 20:12:00,30.0,22.0,-100.00,SW,227,5.0,10.0,72,-99.99,,,-99.99,,2013-04-16 03:12:00,
2013-04-15 20:22:00,30.0,22.0,-100.00,SW,227,5.0,10.0,72,-99.99,,,-99.99,,2013-04-16 03:22:00,
2013-04-15 21:00:00,26.0,24.0,-100.00,SSE,148,1.0,4.0,91,-99.99,,,-99.99,,2013-04-16 04:00:00,
2013-04-15 21:33:00,26.0,24.0,-100.00,SSE,148,1.0,4.0,91,-99.99,,,-99.99,,2013-04-16 04:33:00,
2013-04-15 21:42:00,26.0,24.0,-100.00,SSE,148,1.0,4.0,91,-99.99,,,-99.99,,2013-04-16 04:42:00,
2013-04-15 21:53:00,26.0,24.0,-100.00,SSE,148,1.0,4.0,91,-99.99,,,-99.99,,2013-04-16 04:53:00,
2013-04-15 22:32:00,26.0,25.0,-100.00,SSW,192,2.0,4.0,95,-99.99,,,-99.99,,2013-04-16 05:32:00,
2013-04-15 22:42:00,26.0,25.0,-100.00,SSW,192,2.0,4.0,95,-99.99,,,-99.99,,2013-04-16 05:42:00,
2013-04-15 22:52:00,26.0,25.0,-100.00,SSW,192,2.0,4.0,95,-99.99,,,-99.99,,2013-04-16 05:52:00,
2013-04-15 23:02:00,26.0,25.0,-100.00,NE,47,3.0,7.0,94,-99.99,,,-99.99,,2013-04-16 06:02:00,
2013-04-15 23:12:00,26.0,25.0,-100.00,NE,47,3.0,7.0,94,-99.99,,,-99.99,,2013-04-16 06:12:00,
2013-04-15 23:22:00,26.0,25.0,-100.00,NE,47,3.0,7.0,94,-99.99,,,-99.99,,2013-04-16 06:22:00,
2013-04-15 23:30:00,26.0,25.0,-100.00,East,83,0.0,2.0,95,-99.99,,,-99.99,,2013-04-16 06:30:00,
2013-04-15 23:32:00,26.0,25.0,-100.00,ENE,66,1.0,3.0,95,-99.99,,,-99.99,,2013-04-16 06:32:00,
2013-04-15 23:42:00,26.0,25.0,-100.00,ENE,66,1.0,3.0,95,-99.99,,,-99.99,,2013-04-16 06:42:00,
2013-04-15 23:52:00,26.0,25.0,-100.00,ENE,66,1.0,3.0,95,-99.99,,,-99.99,,2013-04-16 06:52:00,